Location: Newark
(46.1292°N, 1.0086°W)
Time: 11:36:04
(UTC+00:00)

Vanguard 2 - All Passes

Search period start: 21 November 2019 00:00
Search period end: 01 December 2019 00:00
Orbit: 554 x 2937 km, 32.9° (Epoch: 20 November)

Date Brightness Start Highest point End Pass type
(mag) Time Alt. Az. Time Alt. Az. Time Alt. Az.
21 Nov - 04:50:33 10° SSE 04:52:01 10° SSE 04:53:26 10° SE visible
21 Nov - 06:52:26 10° SSW 07:01:21 23° SSE 07:07:44 10° ESE daylight
21 Nov - 09:01:57 10° SW 09:10:06 29° S 09:15:34 10° ESE daylight
21 Nov - 11:12:54 10° WSW 11:17:52 20° SSW 11:21:38 10° SSE daylight
22 Nov - 05:02:49 10° S 05:09:47 15° SSE 05:15:34 10° ESE visible
22 Nov - 07:09:15 10° SW 07:19:09 28° SSE 07:25:58 10° ESE daylight
22 Nov - 09:19:36 10° WSW 09:27:50 30° S 09:33:18 10° SE daylight
22 Nov - 11:31:06 10° WSW 11:35:23 17° SSW 11:38:46 10° SSE daylight
23 Nov - 05:18:06 10° SSW 05:27:34 20° SSE 05:34:51 10° ESE visible
23 Nov - 07:26:25 10° SW 07:36:58 32° S 07:43:59 10° ESE daylight
23 Nov - 09:37:24 10° WSW 09:45:31 30° SSW 09:50:56 10° SE daylight
23 Nov - 11:49:42 10° WSW 11:52:50 14° SSW 11:55:27 10° S daylight
24 Nov - 03:32:59 10° SSE 03:35:41 11° SE 03:38:14 10° SE visible
24 Nov - 05:34:16 10° SSW 05:45:21 26° SSE 05:53:28 10° ESE visible
24 Nov - 07:43:49 10° SW 07:54:45 35° S 08:01:51 10° ESE daylight
24 Nov - 09:55:19 10° WSW 10:03:09 28° SSW 10:08:26 10° SE daylight
25 Nov - 03:45:14 10° S 03:53:21 16° SSE 04:00:19 10° ESE visible
25 Nov - 05:50:57 10° SW 06:03:08 30° SSE 06:11:44 10° ESE visible
25 Nov - 08:01:26 10° WSW 08:12:30 37° S 08:19:38 10° ESE daylight
25 Nov - 10:13:23 10° WSW 10:20:42 25° SSW 10:25:47 10° SSE daylight
26 Nov - 04:00:15 10° S 04:11:02 21° SSE 04:19:48 10° ESE visible
26 Nov - 06:07:59 10° SW 06:20:56 35° SSE 06:29:48 10° ESE visible
26 Nov - 08:19:11 10° WSW 08:30:14 37° S 08:37:18 10° ESE daylight
26 Nov - 10:31:36 10° WSW 10:38:10 22° SSW 10:42:55 10° SSE daylight
27 Nov - 04:16:12 10° SSW 04:28:44 27° SSE 04:38:33 10° ESE visible
27 Nov - 06:25:18 10° SW 06:38:43 39° S 06:47:43 10° ESE visible
27 Nov - 08:37:04 10° WSW 08:47:55 36° SSW 08:54:54 10° SE daylight
27 Nov - 10:50:05 10° WSW 10:55:33 17° SW 10:59:43 10° S daylight
28 Nov - 02:28:26 10° S 02:36:31 15° SE 02:43:54 10° ESE visible
28 Nov - 04:32:43 10° SSW 04:46:29 32° SSE 04:56:54 10° ESE visible
28 Nov - 06:42:50 10° WSW 06:56:30 41° S 07:05:32 10° ESE visible
28 Nov - 08:55:02 10° WSW 09:05:32 34° SSW 09:12:22 10° SE daylight
28 Nov - 11:09:09 10° WSW 11:12:49 13° SW 11:15:52 10° SSW daylight
29 Nov - 02:43:00 10° S 02:54:04 20° SE 03:03:48 10° ESE visible
29 Nov - 04:49:36 10° SW 05:04:13 37° SSE 05:15:02 10° ESE visible
29 Nov - 07:00:31 10° WSW 07:14:17 43° S 07:23:16 10° ESE daylight
29 Nov - 09:13:08 10° WSW 09:23:03 30° SSW 09:29:41 10° SSE daylight
30 Nov - 02:58:40 10° SSW 03:11:39 26° SSE 03:22:47 10° E visible
30 Nov - 05:06:48 10° SW 05:22:00 41° SSE 05:33:01 10° ESE visible
30 Nov - 07:18:20 10° WSW 07:32:00 43° S 07:40:55 10° ESE daylight
30 Nov - 09:31:22 10° W 09:40:29 26° SSW 09:46:48 10° SSE daylight
